Main page
METAR-TAF:

METAR-TAF

Airports :

Qeshm International Airport

Qeshm, Iran

latitude: 26-45-18N, longitude: 055-54-08E, elevation: 12 m

Current weather observation

The report was made 26 minutes ago, at 15:00 UTC
Wind 12 kt from the West/Southwest
Temperature 34°C
Humidity 75%
Pressure 992 hPa
Visibility: 7000 m

METAR: OIKQ 231500Z 24012KT 7000 NSC 34/29 Q0992

Time: 19:56 (15:26 UTC)


TAF: missing

Weather observations and forecasts of more than 4000 airports (METAR and TAF reports).

The available stations are represented by yellow and red dots on the map.

Hover mouse over dot to see the name of the station.

Then click to see weather observations and forecasts.

To change the map : click on the green buttons with a black cross to zoom in, on the green button with a dash to zoom out, or on the green arrows for adjacent maps.


METAR-TAF: